STARLINK-11655 [DTC] (63675 NORAD) Tracking and Keplerian Element Data

This shows tracking and keplerian element data for the satellite.

Feedback or suggestion? Click here.




ElementValue
Catalog63675
NameSTARLINK-11655 [DTC]
Epoch Orbit3768
Epoch Day353.82619105
Epoch Year2025
RAAN39.6034
Inclination43.0003
Eccentricity0.0001405
Argument of Perigee297.1706
Mean Anonmoly62.9019
Mean Motion15.7089498
Decay Rate0.00221549
L11 63675U 25085M 25353.82619105 .00221549 00000+0 16806-2 0 9992
L22 63675 43.0003 39.6034 0001405 297.1706 62.9019 15.70894980 37688



Live tracking and technical data element details for STARLINK-11655 [DTC] (NORAD 63675). STARLINK-11655 [DTC] can be tracked NOW for your location showing map with azimuth and elevation plus other details from your city location.







IsCatalogInMostPopularTable: catalog: 63675, numindb: 8
Update: records affected: 1



GetName: 63675 STARLINK-11655 [DTC]

Hit Count: updated at: Sat, 11 Apr 2026 21:45:41 GMT